Regional Weather Roundup
Issued by NWS

Home | Current Version | Previous Version | Graphics & Text | Print | Product List | Glossary Off
Versions: 1 2 3 4 5 6 7 8 9 10 11 12 13 14 15 16 17 18 19 20 21 22 23 24 25 26 27 28 29 30 31 32 33 34 35 36 37 38 39 40 41 42 43 44 45 46 47 48 49 50

000
ASUS43 KMPX 211610
RWRMN
WEATHER ROUNDUP FOR MINNESOTA
NATIONAL WEATHER SERVICE TWIN CITIES/CHANHASSEN MN
1100 AM CDT SAT APR 21 2018


NOTE: "FAIR" INDICATES FEW OR NO CLOUDS BELOW 12,000 FEET WITH NO
SIGNIFICANT WEATHER AND/OR OBSTRUCTIONS TO VISIBILITY. N/A MEANS
CURRENT SKY AND/OR WEATHER CONDITIONS ARE NOT AVAILABLE.

MNZ060>063-068>070-211700-
   Twin Cities Metro

CITY           SKY/WX    TMP DP  RH WIND       PRES   REMARKS
TWIN CITIES    FAIR      50  25  37 CALM      30.43S
ST PAUL        FAIR      50  25  37 CALM      30.44S
CRYSTAL        FAIR      49  22  34 SE3       30.42S
BLAINE         MOSUNNY   50  21  32 CALM      30.42S
LAKEVILLE      FAIR      46  30  53 E5        30.42S
EDEN PRAIRIE   FAIR      49  28  44 S3        30.42S
SOUTH ST PAUL  FAIR      49  24  36 CALM      30.42S
LAKE ELMO      FAIR      48  28  46 CALM      30.43S
$$
MNZ001>005-007-008-013>017-022>024-027-028-211700-
   Northwest Minnesota

CITY           SKY/WX    TMP DP  RH WIND       PRES   REMARKS
BEMIDJI        FAIR      51  32  49 S6        30.37F
HALLOCK        FAIR      50  45  81 S13       30.31F
ROSEAU         FAIR      52  43  71 S9        30.34F
WARROAD        FAIR      54  41  62 SW7       30.35S
THIEF RVR FALL PTSUNNY   47  39  74 S9        30.36F
CROOKSTON      FAIR      46  39  76 S12       30.36S
FOSSTON        FAIR      48  36  61 S7        30.37F
DETROIT LAKES  FAIR      50  32  50 SW5       30.38S
MOORHEAD       FAIR      48  37  66 S8        30.37F
PARK RAPIDS    FAIR      49  32  52 S6        30.37F
MAHNOMEN       FAIR      49  36  60 SW7       30.36F
$$
MNZ006-009>011-018-025>026-211700-
   North Central Minnesota

CITY           SKY/WX    TMP DP  RH WIND       PRES   REMARKS
BAUDETTE       FAIR      53  32  44 S12       30.35S
FLAG ISLAND    FAIR      37  30  75 SE10      30.34S
INTL FALLS     FAIR      54  31  41 SE5       30.36F
WASKISH        CLOUDY    48  34  57 NW5       30.37S
BIG FORK       FAIR      52  32  46 S3        30.37F
LONGVILLE      FAIR      52  30  43 W5        30.39S
GRAND RAPIDS   FAIR      50  30  46 CALM      30.40F
CRANE LAKE     FAIR      50  21  32 CALM      30.38F
ORR            FAIR      54  21  28 CALM      30.35S
COOK           FAIR      54  28  37 CALM      30.37F
WALKER         FAIR      48  30  49 SE7       30.38F
$$
MNZ012-019>021-037-211700-
   Northeast Minnesota

CITY           SKY/WX    TMP DP  RH WIND       PRES   REMARKS
DULUTH         FAIR      51  23  33 W6        30.38F
ELY            FAIR      52  21  30 CALM      30.37S
HIBBING        FAIR      51  27  39 SE8       30.37F
EVELETH        FAIR      52  26  36 SW3       30.38F
DULUTH HARBOR  FAIR      52  28  40 CALM      30.40F
TWO HARBORS    FAIR      57  34  41 SE7       30.37S
SILVER BAY     FAIR      55  25  30 SE6       30.36F
GRAND MARAIS     N/A     36  31  82 SW6       30.40S
G MARAIS ARPRT FAIR      52  19  28 SE6       30.37S
$$
MNZ029>031-032-039>041-046>048-054>057-064-211700-
   West Central Minnesota

CITY           SKY/WX    TMP DP  RH WIND       PRES   REMARKS
FERGUS FALLS   FAIR      50  36  57 S8        30.36F
WHEATON        SUNNY     50  36  57 S7        30.39F
MORRIS         MOSUNNY   48  36  61 S10       30.38F
ALEXANDRIA     FAIR      51  29  42 VRB3      30.40S
ELBOW LAKE     FAIR      51  35  54 SE7       30.39F
WADENA         FAIR      50  34  53 S3        30.38F
GLENWOOD       FAIR      52  28  40 S3        30.40S
APPLETON       MOSUNNY   48  32  53 S7        30.40S
BENSON         CLOUDY    52  32  46 S10       30.42S
ORTONVILLE     MOSUNNY   48  37  66 SE7       30.39S
MADISON        MOSUNNY   45  37  76 SE6       30.39F
WILLMAR        FAIR      46  34  61 SE7       30.44S
$$
MNZ033>034-036-042>043-049>051-058-059-211700-
   Central Minnesota

CITY           SKY/WX    TMP DP  RH WIND       PRES   REMARKS
ST CLOUD       FAIR      48  25  40 S6        30.42S
SAUK CENTRE    FAIR      47  30  51 E5        30.40F
PAYNESVILLE    FAIR      48  29  48 SE3       30.41S
AITKIN         FAIR      50  25  37 SW3       30.38F
PINE RIVER     FAIR      46  28  49 S6        30.41F
BRAINERD       FAIR      51  26  37 SE5       30.40F
STAPLES        FAIR      48  28  46 CALM      30.40S
LONG PRAIRIE   FAIR      46  32  57 CALM      30.41F
LITTLE FALLS   FAIR      46  21  36 CALM      30.41F
LITCHFIELD     FAIR      48  30  49 SE7       30.42S
BUFFALO        FAIR      47  26  43 CALM      30.44R
MAPLE LAKE     FAIR      48  30  49 CALM      30.43S
HUTCHINSON     FAIR      46  32  56 SE8       30.44S
$$
MNZ037-044-045-052-053-211700-
   East Central Minnesota

CITY           SKY/WX    TMP DP  RH WIND       PRES   REMARKS
PRINCETON      FAIR      52  25  35 S3        30.42S
MORA           FAIR      46  28  49 SE3       30.43F
CAMBRIDGE      FAIR      52  30  43 CALM      30.42F
RUSH CITY      FAIR      49  23  36 CALM      30.43S
MOOSE LAKE     FAIR      50  27  40 SW6       30.39R
HINCKLEY       FAIR      50  27  40 CALM      30.42S
CLOQUET        FAIR      52  16  24 CALM      30.39S
MCGREGOR       FAIR      52  28  40 CALM      30.39F
$$
MNZ071>073-080-081-089-090-097-098-211700-
   Southwest Minnesota

CITY           SKY/WX    TMP DP  RH WIND       PRES   REMARKS
MONTEVIDEO     MOSUNNY   48  36  61 S5        30.41S
GRANITE FALLS  CLOUDY    46  32  56 SE7       30.42S
CANBY          CLOUDY    41  34  75 CALM      30.40F
REDWOOD FALLS  CLOUDY    43  30  60 SE6       30.40F
OLIVIA         PTSUNNY   46  34  61 SE7       30.41S
PIPESTONE      CLOUDY   N/A N/A N/A E6        30.36S
WINDOM         CLOUDY    39  21  48 E8        30.39S
WORTHINGTON    CLOUDY    40  33  76 NE7       30.38S
JACKSON        CLOUDY    37  30  75 CALM      30.39S
TRACY          CLOUDY    41  33  73 CALM      30.39S
SLAYTON        CLOUDY    39  29  65 E6        30.38F
$$
MNZ065>067-074>077-082>085-091>093-211700-
   South Central Minnesota

CITY           SKY/WX    TMP DP  RH WIND       PRES   REMARKS
MANKATO        FAIR      46  30  53 CALM      30.42S
NEW ULM        CLOUDY    43  23  45 E5        30.41S
ST JAMES       CLOUDY    37  30  75 NE5       30.41S
FAIRMONT       CLOUDY    38  28  67 E3        30.40S
GLENCOE        FAIR      46  31  56 E5        30.42F
OWATONNA       PTSUNNY   45  34  65 E5        30.40F
WASECA         FAIR      45  32  61 NE3       30.42S
ALBERT LEA     PTSUNNY   43  30  61 CALM      30.41R
$$
MNZ078>079-086>088-094>096-211700-
   Southeast Minnesota

CITY           SKY/WX    TMP DP  RH WIND       PRES   REMARKS
ROCHESTER      CLOUDY    45  35  68 S7        30.40F
RED WING       FAIR      50  21  32 S5        30.42S
STANTON        FAIR      46  35  64 CALM      30.41S
DODGE CENTER   PTSUNNY   43  34  70 CALM      30.41S
WINONA         CLOUDY    46  34  61 CALM      30.41F
AUSTIN         FAIR      45  32  61 CALM      30.40F
PRESTON        PTSUNNY   48  32  55 SE8       30.42S
$$
ABBREVIATIONS USED IN REMARKS
   TC - TEMPERATURES IN CELSIUS
  WCI - WIND CHILL INDEX
   HX - HEAT INDEX
  VSB - VISIBILITY
$$




USA.gov is the U.S. government's official web portal to all federal, state and local government web resources and services.